Location: Unspecified
(30.2090°N, 0.0000°E)
Time: 13:39:38
(UTC+00:00)

UNISAT 6 - Visible Passes

Search period start: 04 April 2026 00:00
Search period end: 14 April 2026 00:00
Orbit: 574 x 636 km, 97.8° (Epoch: 28 March)

Date Brightness Start Highest point End Pass type
(mag) Time Alt. Az. Time Alt. Az. Time Alt. Az.
5 Apr ? 02:44:18 11° NNE 02:44:18 11° NNE 02:44:30 10° NNE visible
6 Apr ? 02:56:45 13° NNE 02:56:45 13° NNE 02:57:22 10° N visible
7 Apr ? 03:09:12 16° N 03:09:12 16° N 03:10:07 10° N visible
8 Apr ? 03:21:38 18° N 03:21:38 18° N 03:22:44 10° N visible
9 Apr ? 03:34:04 18° NNW 03:34:04 18° NNW 03:35:15 10° NNW visible
10 Apr ? 03:46:30 18° NNW 03:46:30 18° NNW 03:47:40 10° NNW visible
11 Apr ? 02:22:06 12° NE 02:22:06 12° NE 02:22:56 10° NE visible
11 Apr ? 03:58:55 16° NW 03:58:55 16° NW 03:59:58 10° NNW visible
12 Apr ? 02:34:31 17° NE 02:34:31 17° NE 02:36:09 10° NNE visible
12 Apr ? 04:11:20 14° NW 04:11:20 14° NW 04:12:06 10° NW visible
13 Apr ? 02:46:56 22° NE 02:46:56 22° NE 02:49:04 10° NNE visible
13 Apr ? 04:23:45 11° NW 04:23:45 11° NW 04:24:00 10° NW visible
